| time (UTC) | temp F | wind direction | speed knots | gust knots | rain 1hr in | rain 24hr in | rain mn in | humidity % | barometer mb |
| 20260506124638 | 45 | 193 | 3.5 | 7.0 | 0.00 | 0.00 | 0.00 | 61 | 1014.0 |
| 20260506122848 | 44 | 203 | 7.8 | 13.0 | 0.00 | 0.00 | 0.00 | 63 | 1013.8 |
| 20260506121242 | 45 | 199 | 6.1 | 12.2 | 0.00 | 0.00 | 0.00 | 62 | 1013.8 |
| 20260506115543 | 44 | 199 | 7.8 | 13.9 | 0.00 | 0.00 | 0.00 | 69 | 1013.8 |
| 20260506115538 | 44 | 199 | 7.8 | 13.9 | 0.00 | 0.00 | 0.00 | 69 | 1013.8 |
| 20260506113643 | 45 | 190 | 4.3 | 11.3 | 0.00 | 0.00 | 0.00 | 60 | 1013.8 |
| 20260506112013 | 47 | 192 | 5.2 | 11.3 | 0.00 | 0.00 | 0.00 | 58 | 1013.7 |
| 20260506110203 | 45 | 196 | 9.6 | 14.8 | 0.00 | 0.00 | 0.00 | 64 | 13.7 |
| 20260506110200 | 45 | 196 | 9.6 | 14.8 | 0.00 | 0.00 | 0.00 | 64 | 1013.7 |
| 20260506104604 | 46 | 199 | 5.2 | 10.4 | 0.00 | 0.00 | 0.00 | 58 | 1013.7 |
| 20260506104558 | 46 | 199 | 5.2 | 10.4 | 0.00 | 0.00 | 0.00 | 58 | 1013.7 |
| 20260506102718 | 46 | 205 | 3.5 | 7.0 | 0.00 | 0.00 | 0.00 | 60 | 1013.7 |
| 20260506100723 | 51 | 128 | 1.7 | 4.3 | 0.00 | 0.00 | 0.00 | 47 | 1013.6 |
| 20260506094751 | 0 | 206 | 3.5 | 7.8 | 0.00 | 0.00 | 0.00 | 46 | 1013.4 |
| 20260506094748 | 50 | 206 | 3.5 | 7.8 | 0.00 | 0.00 | 0.00 | 46 | 1013.4 |
| 20260506092943 | 51 | 183 | 1.7 | 4.3 | 0.00 | 0.00 | 0.00 | 30 | 1013.3 |
| 20260506091113 | 50 | 357 | 1.7 | 3.5 | 0.00 | 0.00 | 0.00 | 31 | 1013.3 |
| 20260506085233 | 47 | 341 | 2.6 | 5.2 | 0.00 | 0.00 | 0.00 | 44 | 1013.0 |
| 20260506083608 | 48 | 291 | 1.7 | 3.5 | 0.00 | 0.00 | 0.00 | 41 | 1013.0 |
| 20260506081738 | 47 | 299 | 2.6 | 8.7 | 0.00 | 0.00 | 0.00 | 44 | 1012.9 |
| 20260506072321 | 47 | 62 | 2.6 | 0.0 | 0.00 | 0.00 | 0.00 | 49 | 1012.6 |
| 20260506072318 | 47 | 62 | 2.6 | 4.3 | 0.00 | 0.00 | 0.00 | 49 | 1012.6 |
| 20260506070430 | 46 | 284 | 1.7 | 5.2 | 0.00 | 0.00 | 0.00 | 49 | 1012.5 |
| 20260506061228 | 44 | 15 | 1.7 | 4.3 | 0.00 | 0.00 | 0.00 | 58 | 1012.3 |
| 20260506050238 | 40 | 162 | 1.7 | 5.2 | 0.00 | 0.00 | 0.00 | 69 | 1011.6 |
| 20260506044533 | 37 | 303 | 4.3 | 7.8 | 0.00 | 0.00 | 0.00 | 78 | 1011.2 |
| 20260506042648 | 37 | 94 | 0.9 | 2.6 | 0.00 | 0.00 | 0.00 | 77 | 1011.0 |
| 20260506040728 | 37 | 346 | 1.7 | 3.5 | 0.00 | 0.00 | 0.00 | 78 | 1010.9 |
| 20260506034838 | 36 | 103 | 1.7 | 5.2 | 0.00 | 0.00 | 0.00 | 78 | 1010.8 |
| 20260506032903 | 36 | 95 | 0.9 | 4.3 | 0.00 | 0.00 | 0.00 | 78 | 1010.6 |
| 20260506031038 | 36 | 42 | 0.9 | 2.6 | 0.00 | 0.00 | 0.00 | 78 | 1010.6 |
| 20260506025228 | 36 | 71 | 0.9 | 2.6 | 0.00 | 0.00 | 0.00 | 78 | 1010.4 |
| 20260506023303 | 36 | 44 | 0.9 | 2.6 | 0.00 | 0.00 | 0.00 | 78 | 1010.2 |
| 20260506021658 | 35 | 316 | 1.7 | 3.5 | 0.00 | 0.00 | 0.00 | 78 | 1010.1 |
| 20260506015758 | 35 | 305 | 1.7 | 3.5 | 0.00 | 0.00 | 0.00 | 77 | 1010.1 |
| 20260506014134 | 35 | 301 | 1.7 | 4.3 | 0.00 | 0.00 | 0.00 | 78 | 1010.0 |
| 20260506012353 | 36 | 293 | 3.5 | 6.1 | 0.00 | 0.00 | 0.00 | 77 | 1010.0 |
| 20260506010417 | 36 | 305 | 1.7 | 5.2 | 0.00 | 0.00 | 0.00 | 76 | 1009.9 |
| 20260506004558 | 37 | 338 | 1.7 | 5.2 | 0.00 | 0.00 | 0.00 | 75 | 1009.3 |
| 20260506002842 | 37 | 96 | 1.7 | 5.2 | 0.00 | 0.00 | 0.00 | 73 | 1009.2 |
| 20260506001129 | 38 | 254 | 1.7 | 5.2 | 0.00 | 0.00 | 0.00 | 74 | 1009.1 |
| 20260506001123 | 38 | 254 | 1.7 | 5.2 | 0.00 | 0.00 | 0.00 | 74 | 1009.1 |
| 20260505235247 | 38 | 344 | 2.6 | 4.3 | 0.00 | 0.00 | 0.00 | 74 | 1009.0 |
| 20260505233623 | 38 | 335 | 1.7 | 4.3 | 0.00 | 0.00 | 0.00 | 73 | 1008.8 |
| 20260505231938 | 39 | 342 | 2.6 | 7.8 | 0.00 | 0.00 | 0.00 | 72 | 1008.8 |
| 20260505230258 | 39 | 160 | 1.7 | 5.2 | 0.00 | 0.00 | 0.00 | 70 | 1008.6 |
| 20260505224648 | 39 | 352 | 1.7 | 5.2 | 0.00 | 0.00 | 0.00 | 71 | 1008.6 |
| 20260505222808 | 39 | 351 | 2.6 | 6.1 | 0.00 | 0.00 | 0.00 | 70 | 1008.6 |
| 20260505221033 | 39 | 97 | 2.6 | 7.8 | 0.00 | 0.00 | 0.00 | 68 | 1008.4 |
| 20260505215118 | 40 | 24 | 2.6 | 5.2 | 0.00 | 0.00 | 0.00 | 67 | 1008.4 |
| 20260505213143 | 40 | 100 | 1.7 | 7.0 | 0.00 | 0.00 | 0.00 | 65 | 1008.3 |
| 20260505211528 | 41 | 133 | 1.7 | 5.2 | 0.00 | 0.00 | 0.00 | 63 | 1008.1 |
| 20260505205929 | 42 | 21 | 1.7 | 6.1 | 0.00 | 0.00 | 0.00 | 58 | 1007.3 |
| 20260505203953 | 43 | 150 | 2.6 | 7.0 | 0.00 | 0.00 | 0.00 | 57 | 1007.2 |
| 20260505202033 | 43 | 298 | 2.6 | 7.0 | 0.00 | 0.00 | 0.00 | 54 | 1007.2 |
| 20260505200333 | 44 | 115 | 1.7 | 5.2 | 0.00 | 0.00 | 0.00 | 50 | 1007.0 |
| 20260505194648 | 44 | 41 | 2.6 | 6.1 | 0.00 | 0.00 | 0.00 | 49 | 1006.9 |
| 20260505192658 | 45 | 113 | 2.6 | 6.1 | 0.00 | 0.00 | 0.00 | 45 | 1006.9 |
| 20260505190823 | 45 | 59 | 2.6 | 6.1 | 0.00 | 0.00 | 0.00 | 46 | 1006.6 |
| 20260505185043 | 45 | 99 | 1.7 | 4.3 | 0.00 | 0.00 | 0.00 | 46 | 1006.4 |
| 20260505183343 | 46 | 122 | 2.6 | 8.7 | 0.00 | 0.00 | 0.00 | 42 | 1006.3 |
| 20260505181528 | 46 | 333 | 3.5 | 7.0 | 0.00 | 0.00 | 0.00 | 45 | 1006.1 |
| 20260505175548 | 47 | 110 | 3.5 | 7.8 | 0.00 | 0.00 | 0.00 | 45 | 1006.0 |
| 20260505173753 | 48 | 271 | 3.5 | 7.8 | 0.00 | 0.00 | 0.00 | 43 | 1006.0 |
| 20260505171819 | 48 | 149 | 2.6 | 7.8 | 0.00 | 0.00 | 0.00 | 42 | 1005.9 |
| 20260505165942 | 50 | 339 | 3.5 | 8.7 | 0.00 | 0.00 | 0.00 | 33 | 1005.4 |
| 20260505164343 | 50 | 125 | 3.5 | 7.0 | 0.00 | 0.00 | 0.00 | 37 | 1005.2 |
| 20260505162518 | 50 | 305 | 3.5 | 7.8 | 0.00 | 0.00 | 0.00 | 38 | 1005.1 |
| 20260505160726 | 51 | 110 | 2.6 | 5.2 | 0.00 | 0.00 | 0.00 | 33 | 1005.1 |
| 20260505153120 | 52 | 323 | 3.5 | 8.7 | 0.00 | 0.00 | 0.00 | 35 | 1004.9 |
| 20260505151128 | 51 | 349 | 3.5 | 7.0 | 0.00 | 0.00 | 0.00 | 35 | 1005.0 |
| 20260505130303 | 53 | 78 | 4.3 | 9.6 | 0.00 | 0.00 | 0.00 | 38 | 1004.2 |